Weather History for Tatalina, AK

Change the Weather History Date:

Saturday, July 27, 2013

  Actual Average Record
Temperature  
Mean Temperature 72 °F -  
Max Temperature 82 °F 62 °F 82 °F (2013)
Min Temperature 62 °F 47 °F 44 °F (2003)
Cooling Degree Days 7    
Growing Degree Days 22 (Base 50)    
Moisture  
Dew Point 53 °F    
Average Humidity 53    
Maximum Humidity 73    
Minimum Humidity 30    
Precipitation  
Precipitation 0.00 in - - ()
Sea Level Pressure  
Sea Level Pressure 30.28 in    
Wind  
Wind Speed 3 mph (South)    
Max Wind Speed 5 mph    
Max Gust Speed -    
Visibility 10 miles    
Events      
Averages and records for this station are not official NWS values.
T = Trace of Precipitation, MM = Missing Value Source: NWS Daily Summary

Daily Weather History Graph

Daily Weather History Graph

Search for Another Location

Airport:

Trip Planner

Search our weather history database for the weather conditions in past years. The results will help you decide how hot, cold, wet, or windy it might be!

Date:

Astronomy

Jul. 27, 2013 Rise Set
Actual Time 5:29 AM AKDT 11:29 PM AKDT
Civil Twilight 4:03 AM AKDT 12:53 AM AKDT
Nautical Twilight Sun does not rise Sun does not rise
Astronomical Twilight Sun does not rise Sun does not rise
Moon 11:52 PM AKDT (7/27) 1:45 PM AKDT (7/27)
Length of Visible Light 20h 50m
Length of Day
17h 59m
Waning Gibbous, 69% of the Moon is Illuminated
Jul 27
Waning Gibbous
Jul 29
Last Quarter
Aug 6
New
Aug 14
First Quarter
Aug 20
Full

Hourly Weather History & Observations

Time (AKDT) Temp. Heat Index Dew Point Humidity Pressure Visibility Wind Dir Wind Speed Gust Speed Precip Events Conditions
12:55 AM 66.4 °F - 53.8 °F 64% 30.27 in 10.0 mi NE 3.5 mph - N/A   Clear
1:55 AM 66.0 °F - 54.1 °F 65% 30.28 in 10.0 mi WSW 3.5 mph - N/A   Clear
2:55 AM 65.5 °F - 54.1 °F 67% 30.28 in 10.0 mi West 1.2 mph - N/A   Clear
3:55 AM 63.7 °F - 54.5 °F 72% 30.29 in 10.0 mi North 1.2 mph - N/A   Clear
4:55 AM 62.8 °F - 54.1 °F 73% 30.29 in 10.0 mi Calm Calm - N/A   Clear
5:55 AM 63.1 °F - 54.1 °F 72% 30.29 in 10.0 mi ENE 3.5 mph - N/A   Clear
6:55 AM 63.0 °F - 54.1 °F 73% 30.30 in 10.0 mi WSW 1.2 mph - N/A   Partly Cloudy
7:55 AM 64.2 °F - 55.0 °F 72% 30.30 in 10.0 mi NNE 2.3 mph - N/A   Clear
8:55 AM 65.8 °F - 54.9 °F 68% 30.31 in 10.0 mi East 2.3 mph - N/A   Clear
9:55 AM 67.8 °F - 55.8 °F 65% 30.32 in 10.0 mi ENE 2.3 mph - N/A   Clear
10:55 AM 70.9 °F - 55.4 °F 58% 30.32 in 10.0 mi SSW 3.5 mph - N/A   Clear
12:55 PM 74.8 °F - 53.8 °F 48% 30.31 in 10.0 mi SSW 3.5 mph - N/A   Clear
1:55 PM 77.0 °F - 56.1 °F 48% 30.30 in 10.0 mi Variable 4.6 mph - N/A   Clear
2:55 PM 78.1 °F - 53.8 °F 43% 30.29 in 10.0 mi Variable 3.5 mph - N/A   Clear
3:55 PM 79.3 °F - 50.9 °F 37% 30.28 in 10.0 mi Variable 3.5 mph - N/A   Clear
4:55 PM 80.2 °F - 51.4 °F 37% 30.27 in 10.0 mi SE 2.3 mph - N/A   Clear
5:55 PM 81.5 °F - 50.9 °F 34% 30.26 in 10.0 mi Variable 2.3 mph - N/A   Clear
6:55 PM 81.5 °F - 49.8 °F 33% 30.25 in 10.0 mi SSE 2.3 mph - N/A   Clear
7:55 PM 82.0 °F - 48.0 °F 30% 30.24 in 10.0 mi SSE 3.5 mph - N/A   Clear
8:55 PM 82.0 °F - 49.8 °F 32% 30.23 in 10.0 mi Variable 2.3 mph - N/A   Clear
9:55 PM 80.4 °F 80.1 °F 53.6 °F 39% 30.24 in 10.0 mi West 2.3 mph - N/A   Clear
10:55 PM 77.5 °F - 51.4 °F 40% 30.24 in 10.0 mi WNW 3.5 mph - N/A   Clear
11:55 PM 75.2 °F - 51.3 °F 43% 30.25 in 10.0 mi Variable 2.3 mph - N/A   Clear